Regional Weather Roundup
Issued by NWS

Home | Current Version | Previous Version | Text Only | Print | Product List | Glossary On
Versions: 1 2 3 4 5 6 7 8 9 10 11 12 13 14 15 16 17 18 19 20 21 22 23 24 25 26 27 28 29 30 31 32 33 34 35 36 37 38 39 40 41 42 43 44 45 46 47 48 49 50
000
ASUS46 KSTO 300115
RWRCA

NORTHERN AND CENTRAL CA REGIONAL WEATHER ROUNDUP
NATIONAL WEATHER SERVICE SACRAMENTO CA
600 PM PDT SAT APR 29 2017

NOTE: FAIR INDICATES FEW OR NO CLOUDS BELOW 12,000 FEET WITH NO
SIGNIFICANT WEATHER AND/OR OBSTRUCTIONS TO VISIBILITY.

CAZ001-003-300200-
NORTHWEST AREA

CITY           SKY/WX    TMP DP  RH WIND       PRES   REMARKS
CRESCENT CITY  MOSUNNY   55  49  80 NW10      30.26S
UKIAH          SUNNY     77  36  22 N8        30.08R
$$

CAZ006-505>513-300200-
BAY AREA

CITY           SKY/WX    TMP DP  RH WIND       PRES   REMARKS
SANTA ROSA     SUNNY     80  38  22 S8        30.03F
SAN RAFAEL     N/A       77  MM  MM MISG
NAPA           SUNNY     76  46  34 W9        30.06S
CONCORD        SUNNY     81  42  25 NW9       30.05F
OAKLAND CITY   N/A      MM  MM  MM MISG
OAKLAND        SUNNY     71  50  47 NW10      30.08F
SAN FRAN CITY  N/A       MM  MM  MM MISG
SAN FRAN ARPT  SUNNY     67  44  43 W21       30.08F
LIVERMORE      SUNNY     76  40  27 W8        30.06S
HAYWARD        SUNNY     72  45  37 W10       30.08S
REDWOOD CITY   N/A       78  MM  24 MISG
MOFFETT ARPT   SUNNY     73  49  42 N13       30.07F
SAN JOSE ARPT  MOSUNNY   75  39  27 NW14      30.07S
$$
CAZ034-037-514>518-300200-
CENTRAL COAST

CITY           SKY/WX    TMP DP  RH WIND       PRES   REMARKS
WATSONVILLE    SUNNY     68  52  56 SE6       30.08S HAZE
SALINAS        SUNNY     68  42  38 SW12      30.09S
MONTEREY       SUNNY     66  41  40 W6        30.11S
SAN LUIS OBISP SUNNY     70  37  29 NW16      30.04R
SANTA MARIA    SUNNY     72  28  19 NW15      30.05R
$$
CAZ015-016-300200-
NORTHERN SACRAMENTO VALLEY

CITY           SKY/WX    TMP DP  RH WIND       PRES   REMARKS
REDDING        PTSUNNY   80  34  19 W5        30.03S
RED BLUFF      MOSUNNY   81  26  13 NE9       30.02F
OROVILLE       SUNNY     81  40  23 NW5       30.03F
$$
CAZ016>018-300200-
SOUTHERN SACRAMENTO VALLEY

CITY           SKY/WX    TMP DP  RH WIND       PRES   REMARKS
AUBURN         SUNNY     73  39  29 W6        30.08F
BEALE AFB      SUNNY     80  36  20 NW5       30.01F
LINCOLN        FAIR      79  34  19 CALM      30.02F
MARYSVILLE     SUNNY     81  32  17 N5        30.02F
SAC INTL ARPT  SUNNY     79  35  20 NW5       30.02F
MATHER AIRPORT SUNNY     79  32  18 N7        30.04F
DOWNTOWN SAC   N/A       83  MM  MM MISG
SAC EXEC ARPT  SUNNY     81  32  17 NW8       30.03F
VACAVILLE      SUNNY     79  45  29 SW9       30.05F
TRAVIS AFB     SUNNY     76  47  35 SW10      30.03F
$$
CAZ019>021-300200-
SAN JOAQUIN VALLEY

CITY           SKY/WX    TMP DP  RH WIND       PRES   REMARKS
STOCKTON       SUNNY     80  34  19 NW7       30.04F
MODESTO        SUNNY     80  31  16 NW7       30.04F
MERCED         SUNNY     78  30  17 N9        30.05S
LEMOORE        SUNNY     80  19  10 N14       30.04F
FRESNO         SUNNY     79  34  19 NW6       30.04F
HANFORD        SUNNY     80  36  20 N6        30.04S
PORTERVILLE      N/A     80  30  16 NW6       30.04F
BAKERSFIELD    SUNNY     81  30  15 NW14      30.02R
$$
CAZ011-012-071-300200-
NORTHERN MOUNTAINS

CITY           SKY/WX    TMP DP  RH WIND       PRES   REMARKS
YREKA          PTSUNNY   70  38  31 N5        30.15F
MOUNT SHASTA   MOSUNNY   68  28  22 VRB7      30.14F
ALTURAS        SUNNY     64  20  18 CALM      30.17F
$$
CAZ011-012-071-300200-
SIERRA NEVADA MTNS

CITY           SKY/WX    TMP DP  RH WIND       PRES   REMARKS
BLUE CANYON    SUNNY     59  33  37 SW10      30.21S
TRUCKEE        SUNNY     59  19  21 SE8       30.21F
TAHOE VLY ARPT SUNNY     53  18  25 NE5       30.23F
MAMMOTH LAKES  FAIR      60   6  11 NW9       30.22S
$$




USA.gov is the U.S. government's official web portal to all federal, state and local government web resources and services.